パンスターズ彗星

C/2016 Q2 ( PanSTARRS )

English version
Home page
Updated on October 9, 2017

---------------------------------------------------------------------

・ プロフィール

発見日 2016年8月26日
発見光度 21.6等
発見者 Pan-STARRS 1 telescope (Haleakala)

・ 写真集

・ 軌道要素

Epoch 2021 May 26.0 TT = JDT 2459360.5
T 2021 May 10.95915 TT                                  MPCW
q   7.0770960            (2000.0)            P               Q
z  -0.0002709      Peri.   84.54557     -0.12693091     -0.80689793
 +/-0.0001057      Node   322.29584     -0.66676637     +0.50000295
e   1.0019169      Incl.  109.39111     +0.73437807     +0.31450403
From 37 observations 2016 Aug. 26-2017 Apr. 25, mean residual 0".6.

・ 星図

・ 光度変化

        m1 = 4.0 + 5 logΔ + 10.0 log r

---------------------------------------------------------------------

軌道要素はM.P.E.C. 2017-J52に掲載されたものです。
星図はステラナビゲータ Ver.10 (アストロアーツ) で作成したものです。
光度グラフはComet for Windowsで作成したものです。

---------------------------------------------------------------------

Copyright(C) Seiichi Yoshida (comet@aerith.net). All rights reserved.